Regional Weather Roundup
Issued by NWS Wilmington, NC

Home | Current Version | Previous Version | Text Only | Print | Product List | Glossary On
Versions: 1 2 3 4 5 6 7 8 9 10 11 12 13 14 15 16 17 18 19 20 21 22 23 24 25 26 27 28 29 30 31 32 33 34 35 36 37 38 39 40 41 42 43 44 45 46 47 48
000
ASUS42 KILM 290113
RWRILM
RWRILM
REGIONAL HOURLY WEATHER ROUNDUP
NATIONAL WEATHER SERVICE WILMINGTON NC
900 PM EDT TUE JUL 28 2015

NOTE: "FAIR" INDICATES FEW OR NO CLOUDS BELOW 12,000 FEET WITH NO
SIGNIFICANT WEATHER AND/OR OBSTRUCTIONS TO VISIBILITY.

...............WFO WILMINGTON COUNTY WARNING AREA...............

......COASTAL NC AND SC COUNTIES......

CITY           SKY/WX    TMP DP  RH WIND       PRES   REMARKS
WILMINGTON     MOCLDY    78  71  79 NE5       29.98R
N MYRTLE BEACH PTCLDY    82  71  69 E7        29.97R
MYRTLE BEACH   CLEAR     81  70  69 E9        29.99R

......INLAND NC AND SC COUNTIES.......

CITY           SKY/WX    TMP DP  RH WIND       PRES   REMARKS
LUMBERTON      PTCLDY    84  70  62 SE6       29.96R
ELIZABETHTOWN  MOCLDY    82  69  65 CALM      29.98R
WHITEVILLE     MOCLDY    81  71  71 CALM      29.97S
FLORENCE       MOCLDY    85  68  56 SE10      29.95S
DARLINGTON     MOCLDY    86  66  51 SE6       29.97R

....................REST OF NORTH CAROLINA......................

.........EASTERN NC.........

CITY           SKY/WX    TMP DP  RH WIND       PRES   REMARKS
CAPE HATTERAS  PTCLDY    78  69  73 E5        29.99S
JACKSONVILLE   MOCLDY    75  66  73 SW3       29.99S
MOREHEAD CITY  PTCLDY    79  72  79 E5        29.98R
KENANSVILLE    MOCLDY    78  71  78 CALM      29.98F
NEW BERN       MOCLDY    79  69  71 CALM      29.99S
ELIZABETH CITY PTCLDY    80  70  71 S5        29.99R

.........CENTRAL NC.........

CITY           SKY/WX    TMP DP  RH WIND       PRES   REMARKS
RALEIGH DURHAM LGT RAIN  80  74  81 NE3       29.99S
ROCKY MOUNT    MOCLDY    79  71  76 CALM      29.98R
ROANOKE RAPIDS NOT AVBL
FAYETTEVILLE   MOCLDY    84  70  62 SE6       29.96S
HOFFMAN        MOCLDY    83  69  61 SE5       29.96S

.........WESTERN NC.........

CITY           SKY/WX    TMP DP  RH WIND       PRES   REMARKS
CHARLOTTE      MOCLDY    77  72  84 CALM      29.99R
GREENSBORO     CLOUDY    77  75  93 E6        29.99F
HICKORY        NOT AVBL
BOONE          NOT AVBL
ASHEVILLE      NOT AVBL

.....................REST OF SOUTH CAROLINA.....................

.........EASTERN SC.........

CITY           SKY/WX    TMP DP  RH WIND       PRES   REMARKS
CHARLESTON     MOCLDY    82  72  71 E7        29.96R
BEAUFORT MCAS  MOCLDY    83  76  79 E6        29.96R HX  91
HILTON HEAD    CLOUDY    82  79  89 N3        29.97S HX  93

.........CENTRAL SC.........

CITY           SKY/WX    TMP DP  RH WIND       PRES   REMARKS
COLUMBIA       CLOUDY    81  74  79 NE3       29.95R
ORANGEBURG     CLOUDY    82  74  76 S3        29.96R
SUMTER SHAW    PTCLDY    84  70  63 W3        29.94R

.........WESTERN SC.........

CITY           SKY/WX    TMP DP  RH WIND       PRES   REMARKS
GREENVILLE     NOT AVBL
ROCK HILL      PTCLDY    74  72  93 CALM      29.98S
ANDERSON       CLOUDY    84  73  69 E6        29.97S HX  90
CLEMSON        NOT AVBL
GREENWOOD      LGT RAIN  75  73  93 S7        29.99F


...................COASTAL AND OFFSHORE REPORTS..................

................LOCAL PIERS AND NC RESERVE................


STATION/POSITION TIME  SKY/WX   TEMP    WIND        PRES    VSBY
                                AIR SEA DIR/SP/G
                 (UTC)          (F)     (DEG/KT/KT) (MB)    (MI)
JOHNY MRCER PIER 0000            81 85   70/  9/ 10 1014.5R
NC RESRV MASNBRO NOT AVBL
OCEAN CREST PIER NOT AVBL
SPRINGMAID  PIER 0000            82 86   70/ 11/ 12 1014.7R


................COASTAL AND OFFSHORE BUOYS................


STATION/POSITION TIME  SKY/WX   TEMP    WIND        PRES    VSBY
                                AIR SEA DIR/SP/G
                 (UTC)          (F)     (DEG/KT/KT) (MB)    (MI)
DIMNDSHOAL 41025 NOT AVBL
CAPE LOOKOUT     0100            81      80/ 10/ 11 1014.9R
ONSLOW BAY 41036 NOT AVBL
5 WRITEBCH 41038 NOT AVBL
MASONBORO  41110 0049               81                N/A
WVE H/P(F/S)=  4/ 8 WND WVE H/P(F/S)=  3/ 8

WILM HARBR 41108 0011               82                N/A
WVE H/P(F/S)=  3/ 7 WND WVE H/P(F/S)=  3/ 7

27WRITEBCH 41037 0000            79 82   80/  8/ 12   N/A
FRYING PAN 41013 0050            83 84   70/ 10/ 14 1014.7R
WVE H/P(F/S)=  4/ 7 WND WVE H/P(F/S)=  2/ 4 SWL H/P/D(F/S/D)=  3/140/ 7

SUNST NRSH 41024 0008            82     110/ 12/ 14 1014.2
CAPRS NRSH 41029 NOT AVBL
EDISTO     41004 0050            83 84   70/  8/ 10 1013.8R
WVE H/P(F/S)=  3/ 6 WND WVE H/P(F/S)=  2/ 4 SWL H/P/D(F/S/D)=  3/ 6



..........OFFSHORE BUOYS BEYOND 100 NM OFFSHORE...........
.....IN A TRIANGLE---HAT TO BERMUDA TO BAHAMAS TO HAT.....


STATION/POSITION TIME  SKY/WX   TEMP    WIND        PRES    VSBY
                                AIR SEA DIR/SP/G
                 (UTC)          (F)     (DEG/KT/KT) (MB)    (MI)
150E HAT   41001 0000            80 83   70/  6/  8 1015.9S
W BERMUDA  41048 0050            80 81  260/ 12/ 14 1016.4R
WVE H/P(F/S)=  4/ 6 WND WVE H/P(F/S)=  3/ 5 SWL H/P/D(F/S/D)=  3/270/ 6

ATLANTIC S 41049 0050            84 86  250/  6/ 10 1020.0R
WVE H/P(F/S)=  3/ 9 SWL H/P/D(F/S/D)=  3/ 60/ 9

E BAHAMAS  41046 0050            84 85   80/  4/  8 1019.3R
WVE H/P(F/S)=  3/ 7 WND WVE H/P(F/S)=  2/ 4 SWL H/P/D(F/S/D)=  3/130/ 7

NE BAHAMAS 41047 0050            83 85  200/  8/ 10 1017.7R
WVE H/P(F/S)=  3/ 6 WND WVE H/P(F/S)=  2/ 4 SWL H/P/D(F/S/D)=  3/150/ 6

120E CANVRL41010 0020            84 84  190/ 17/ 21 1013.7F

END


USA.gov is the U.S. government's official web portal to all federal, state and local government web resources and services.